Weather Roundup
Issued by NWS

Home | Current Version | Previous Version | Graphics & Text | Print | Product List | Glossary Off
Versions: 1 2 3 4 5 6 7 8 9 10 11 12 13 14 15 16 17 18 19 20 21 22 23 24 25 26 27 28 29 30 31 32 33 34 35 36 37 38 39 40 41 42 43 44 45 46 47 48 49 50

000
NZUS93 KARX 010459
HRRWXR

CURRENT HOURLY OBSERVATIONS ACROSS
MUCH OF THE UPPER MISSISSIPPI VALLEY
NATIONAL WEATHER SERVICE LA CROSSE WI
1200 AM CDT WED JUL 01 2015


...SOUTHEAST MINNESOTA...


CITY           SKY/WX    TMP DP  RH WIND       PRES   REMARKS
ROCHESTER      NOT AVBL
ROCHESTER/MAYO FAIR      63  54  71 NE7       29.95F
WINONA         CLEAR     61  52  72 NW3       29.96R
AUSTIN         PTCLDY    61  55  82 CALM      29.94F
ALBERT LEA     PTCLDY    63  57  82 E3        29.95S
DODGE CENTER   MOCLDY    61  57  88 E7        29.95F
PRESTON        CLEAR     58  53  84 NE5       29.96S
OWATONNA       MOCLDY    63  57  82 CALM      29.96R
FARIBAULT      PTCLDY    63  55  77 CALM      29.96R
$$

...ELSEWHERE IN MINNESOTA...


CITY           SKY/WX    TMP DP  RH WIND       PRES   REMARKS
MINNEAPOLIS    NOT AVBL
INTNL FALLS    NOT AVBL
DULUTH         NOT AVBL
RED WING       PTCLDY    61  52  72 E6        29.95S
REDWOOD FALLS  NOT AVBL
MANKATO        NOT AVBL
WORTHINGTON    NOT AVBL
FAIRMONT       NOT AVBL
$$

...SOUTHWEST WISCONSIN...


CITY           SKY/WX    TMP DP  RH WIND       PRES   REMARKS
LA CROSSE      NOT AVBL
PRAIRIE DU CHI PTCLDY    61  57  87 CALM      29.93S
BOSCOBEL       NOT AVBL
LONE ROCK      NOT AVBL
PLATTEVILLE    CLEAR     61  58  91 N6        29.93S
FORT MC COY    CLEAR     52  51  95 CALM      29.95F
CAMP DOUGLAS   CLEAR     54  54 100 NE5       29.94S
VIROQUA        FAIR      56  55  97 NE5       29.95S
WIS DELLS      MOCLDY    61  52  73 CALM      29.94S
$$

...ELSEWHERE IN WISCONSIN...


CITY           SKY/WX    TMP DP  RH WIND       PRES   REMARKS
MILWAUKEE      NOT AVBL
MADISON        NOT AVBL
GREEN BAY      NOT AVBL
EAU CLAIRE     NOT AVBL
BLACK RVR FLS  FAIR      53  53  97 CALM      29.95F
MEDFORD        CLEAR     48  45  91 N5        29.98S
WAUSAU         NOT AVBL
WIS RAPIDS     NOT AVBL
MARSHFIELD     NOT AVBL
RICE LAKE      PTCLDY    54  50  87 CALM      30.00S
$$

...NORTHEAST IOWA...


CITY           SKY/WX    TMP DP  RH WIND       PRES   REMARKS
DECORAH          N/A    N/A N/A N/A MISG        N/A
MASON CITY     NOT AVBL
CHARLES CITY   PTCLDY    63  61  94 NE6       29.94S
OELWEIN        PTCLDY    61  59  94 NE7       29.93F
$$

...ELSEWHERE IN IOWA...


CITY           SKY/WX    TMP DP  RH WIND       PRES   REMARKS
DES MOINES     NOT AVBL
IOWA CITY      NOT AVBL
FORT DODGE     NOT AVBL
$$

...NORTHERN ILLINOIS...


CITY           SKY/WX    TMP DP  RH WIND       PRES   REMARKS
CHICAGO-OHARE  NOT AVBL
CHICAGO-MIDWAY NOT AVBL
MOLINE         NOT AVBL
ROCKFORD       NOT AVBL
PEORIA         NOT AVBL
$$

NOTE: "FAIR" INDICATES FEW OR NO CLOUDS BELOW 12,000 FEET WITH NO
SIGNIFICANT WEATHER AND/OR OBSTRUCTIONS TO VISIBILITY. WIND
SPEEDS ARE IN MILES-PER-HOUR.



USA.gov is the U.S. government's official web portal to all federal, state and local government web resources and services.